Windsor Locks, CT

7:42 PM EST on January 22, 2018 (GMT -0500)
Bradley International

Weather History for KBDL - May, 2014

Change the Weather History Date:

Monday, May 19, 2014

  Actual Average Record
Temperature  
Mean Temperature 58 °F 60 °F  
Max Temperature 70 °F 72 °F 94 °F (1962)
Min Temperature 46 °F 49 °F 34 °F (2009)
Degree Days  
Heating Degree Days 7 6  
Month to date heating degree days 109 150  
Since 1 July heating degree days 6306 5903  
Cooling Degree Days 0 1  
Month to date cooling degree days 20 12  
Year to date cooling degree days 21 18  
Growing Degree Days 8 (Base 50)    
Moisture  
Dew Point 32 °F    
Average Humidity 41    
Maximum Humidity 60    
Minimum Humidity 22    
Precipitation  
Precipitation T in 0.15 in 1.23 in (1999)
Month to date precipitation 2.89 2.45  
Year to date precipitation 20.44 15.91  
Snow  
Snow 0.00 in 0.00 in 0.00 in (2016)
Month to date snowfall 0.0 0.0  
Since 1 July snowfall 51.1 40.5  
Snow Depth 0.00 in    
Sea Level Pressure  
Sea Level Pressure 30.08 in    
Wind  
Wind Speed 10 mph (NW)    
Max Wind Speed 28 mph    
Max Gust Speed 35 mph    
Visibility 10 miles    
Events      
T = Trace of Precipitation, MM = Missing Value Source: NWS Daily Summary

Daily Weather History Graph

Daily Weather History Graph

Search for Another Location

Airport or City:

Trip Planner

Search our weather history database for the weather conditions in past years. The results will help you decide how hot, cold, wet, or windy it might be!

Date:

Astronomy

May. 19, 2014 Rise Set
Actual Time 5:26 AM EDT 8:08 PM EDT
Civil Twilight 4:54 AM EDT 8:40 PM EDT
Nautical Twilight 4:13 AM EDT 9:21 PM EDT
Astronomical Twilight 3:27 AM EDT 10:07 PM EDT
Moon No Moon Rise 10:22 AM EDT (5/19)
Length of Visible Light 15h 46m
Length of Day
14h 41m
Waning Gibbous, 71% of the Moon is Illuminated
May 19
Waning Gibbous
May 21
Last Quarter
May 28
New
Jun 5
First Quarter
Jun 13
Full

Hourly Weather History & Observations

Time (EDT) Temp. Windchill Dew Point Humidity Pressure Visibility Wind Dir Wind Speed Gust Speed Precip Events Conditions
12:51 AM 53.1 °F - 30.0 °F 41% 30.11 in 10.0 mi NW 9.2 mph - N/A   Partly Cloudy
1:51 AM 52.0 °F - 30.0 °F 43% 30.10 in 10.0 mi NW 6.9 mph - N/A   Clear
2:51 AM 51.1 °F - 30.9 °F 46% 30.11 in 10.0 mi NW 9.2 mph - N/A   Mostly Cloudy
3:51 AM 48.0 °F - 30.9 °F 52% 30.12 in 10.0 mi NW 5.8 mph - N/A   Partly Cloudy
4:51 AM 46.0 °F 42.5 °F 33.1 °F 61% 30.13 in 10.0 mi NW 6.9 mph - N/A   Partly Cloudy
5:51 AM 48.0 °F - 33.1 °F 56% 30.14 in 10.0 mi NW 6.9 mph - N/A   Partly Cloudy
6:51 AM 52.0 °F - 34.0 °F 50% 30.15 in 10.0 mi NW 9.2 mph - N/A   Partly Cloudy
7:51 AM 55.9 °F - 33.1 °F 42% 30.15 in 10.0 mi NW 11.5 mph - N/A   Clear
10:51 AM 64.0 °F - 30.9 °F 29% 30.11 in 10.0 mi NW 15.0 mph 24.2 mph N/A   Partly Cloudy
11:51 AM 64.9 °F - 27.0 °F 24% 30.09 in 10.0 mi North 13.8 mph 29.9 mph N/A   Scattered Clouds
12:51 PM 66.9 °F - 26.1 °F 21% 30.07 in 10.0 mi NNW 16.1 mph 24.2 mph N/A   Mostly Cloudy
1:51 PM 66.0 °F - 27.0 °F 23% 30.06 in 10.0 mi NW 16.1 mph 26.5 mph N/A   Mostly Cloudy
2:51 PM 66.9 °F - 28.0 °F 23% 30.04 in 10.0 mi NNW 12.7 mph 23.0 mph N/A   Mostly Cloudy
3:51 PM 64.9 °F - 30.0 °F 27% 30.04 in 10.0 mi North 12.7 mph 20.7 mph N/A   Mostly Cloudy
5:51 PM 68.0 °F - 30.9 °F 25% 30.03 in 10.0 mi North 5.8 mph - N/A   Mostly Cloudy
6:51 PM 64.9 °F - 37.0 °F 36% 30.03 in 10.0 mi NW 12.7 mph - N/A   Scattered Clouds
7:51 PM 62.1 °F - 37.0 °F 39% 30.04 in 10.0 mi West 6.9 mph - N/A   Scattered Clouds
8:51 PM 60.1 °F - 39.0 °F 46% 30.05 in 10.0 mi NW 8.1 mph - N/A   Mostly Cloudy
9:51 PM 60.1 °F - 37.0 °F 42% 30.06 in 10.0 mi NNW 8.1 mph - N/A   Mostly Cloudy
10:51 PM 55.9 °F - 37.9 °F 51% 30.07 in 10.0 mi WNW 5.8 mph - N/A   Scattered Clouds
11:51 PM 54.0 °F - 39.0 °F 57% 30.05 in 10.0 mi West 4.6 mph - N/A   Partly Cloudy